Orbital Elements at Epoch 2459000.5 (2020-May-31.0) TDB
Reference: JPL 16 (heliocentric ecliptic J2000)
Element | Value | Uncertainty (1-sigma) | Units |
e | .1287354401457017 | 4.1964e-08 | |
a | 2.476058459990739 | 2.0356e-08 | au |
q | 2.157301984317343 | 9.781e-08 | au |
i | 2.435159557400483 | 9.2034e-06 | deg |
node | 356.5171239044228 | 0.00010786 | deg |
peri | 249.6828091901023 | 0.00011663 | deg |
M | 150.1700491474691 | 4.1216e-05 | deg |
tp | 2458406.863507608205 (2018-Oct-15.36350761) | 0.00016582 | TDB |
period | 1423.11425263756 3.90 | 1.755e-05 4.805e-08 | d yr |
n | .2529663372654627 | 3.1195e-09 | deg/d |
Q | 2.794814935664135 | 2.2977e-08 | au |
|
| | Orbit Determination Parameters
Additional Information
|